 day,  time,  air_temp(C),  RH(%),  ground_temp10cm(C),  ground_temp20cm(C),  ground_temp40cm(C),  precipitation(mm/h),  Solar_Radiation(MJ/m2h),  lack, 
 01/07/01, 01:00,  18.3,  99,  18.4,  18.4,  17.7,   0.0,  0.00, 
 01/07/01, 02:00,  18.3,  99,  18.4,  18.4,  17.7,   0.0,  0.00, 
 01/07/01, 03:00,  18.1,  99,  18.4,  18.3,  17.7,   0.0,  0.00, 
 01/07/01, 04:00,  17.2,  99,  18.4,  18.3,  17.7,   0.0,  0.00, 
 01/07/01, 05:00,  16.9,  99,  18.3,  18.3,  17.7,   0.0,  0.00, 
 01/07/01, 06:00,  17.0,  97,  18.3,  18.2,  17.7,   0.0,  0.00, 
 01/07/01, 07:00,  16.6,  96,  18.2,  18.2,  17.7,   0.5,  0.04, 
 01/07/01, 08:00,  16.9,  94,  18.1,  18.2,  17.7,   0.0,  0.33, 
 01/07/01, 09:00,  16.7,  99,  18.1,  18.2,  17.7,   0.0,  0.42, 
 01/07/01, 10:00,  17.4,  94,  18.2,  18.1,  17.7,   0.0,  1.12, 
 01/07/01, 11:00,  21.2,  83,  18.6,  18.1,  17.7,   0.0,  2.78, 
 01/07/01, 12:00,  22.7,  71,  19.8,  18.1,  17.7,   0.0,  3.44, 
 01/07/01, 13:00,  22.2,  66,  21.3,  18.2,  17.7,   0.0,  3.37, 
 01/07/01, 14:00,  22.3,  64,  21.9,  18.4,  17.7,   0.0,  3.21, 
 01/07/01, 15:00,  21.9,  71,  21.8,  18.6,  17.6,   0.0,  2.80, 
 01/07/01, 16:00,  21.4,  73,  21.8,  18.8,  17.6,   0.0,  2.23, 
 01/07/01, 17:00,  19.8,  82,  22.0,  19.0,  17.6,   0.0,  1.50, 
 01/07/01, 18:00,  18.5,  84,  21.9,  19.3,  17.6,   0.0,  0.78, 
 01/07/01, 19:00,  16.9,  92,  21.6,  19.4,  17.6,   0.0,  0.19, 
 01/07/01, 20:00,  15.4,  98,  21.3,  19.5,  17.6,   0.0,  0.00, 
 01/07/01, 21:00,  16.8,  91,  20.8,  19.5,  17.6,   0.0,  0.00, 
 01/07/01, 22:00,  14.8,  99,  20.4,  19.6,  17.7,   0.0,  0.00, 
 01/07/01, 23:00,  14.2,  99,  20.0,  19.5,  17.7,   0.0,  0.00, 
 01/07/02, 00:00,  16.6,  80,  19.6,  19.5,  17.7,   0.0,  0.00, 
 01/07/02, 01:00,  18.9,  63,  19.3,  19.4,  17.7,   0.0,  0.00, 
 01/07/02, 02:00,  19.3,  62,  18.9,  19.3,  17.7,   0.0,  0.00, 
 01/07/02, 03:00,  20.2,  54,  18.7,  19.1,  17.8,   0.0,  0.00, 
 01/07/02, 04:00,  20.0,  52,  18.5,  19.0,  17.8,   0.0,  0.00, 
 01/07/02, 05:00,  16.7,  69,  18.3,  18.9,  17.8,   0.0,  0.00, 
 01/07/02, 06:00,  19.3,  61,  18.1,  18.8,  17.7,   0.0,  0.29, 
 01/07/02, 07:00,  21.4,  54,  18.1,  18.7,  17.8,   0.0,  0.95, 
 01/07/02, 08:00,  22.1,  59,  18.3,  18.6,  17.8,   0.0,  1.65, 
 01/07/02, 09:00,  21.4,  77,  18.8,  18.5,  17.8,   0.0,  2.26, 
 01/07/02, 10:00,  23.1,  75,  19.6,  18.5,  17.8,   0.0,  2.82, 
 01/07/02, 11:00,  24.4,  62,  20.6,  18.5,  17.8,   0.0,  3.20, 
 01/07/02, 12:00,  24.8,  58,  21.8,  18.6,  17.8,   0.0,  3.39, 
 01/07/02, 13:00,  26.5,  54,  23.1,  18.8,  17.8,   0.0,  3.37, 
 01/07/02, 14:00,  25.8,  55,  23.7,  19.1,  17.8,   0.0,  2.93, 
 01/07/02, 15:00,  26.9,  56,  23.6,  19.5,  17.8,   0.0,  2.77, 
 01/07/02, 16:00,  24.3,  75,  23.6,  19.8,  17.8,   0.0,  1.79, 
 01/07/02, 17:00,  21.7,  88,  23.6,  20.0,  17.8,   0.0,  0.45, 
 01/07/02, 18:00,  20.9,  96,  23.4,  20.2,  17.8,   0.0,  0.19, 
 01/07/02, 19:00,  20.5,  97,  23.0,  20.3,  17.8,   0.0,  0.03, 
 01/07/02, 20:00,  19.9,  99,  22.7,  20.4,  17.8,   0.0,  0.00, 
 01/07/02, 21:00,  19.7,  99,  22.4,  20.5,  17.8,   0.0,  0.00, 
 01/07/02, 22:00,  18.7,  99,  22.0,  20.5,  17.9,   0.0,  0.00, 
 01/07/02, 23:00,  17.8,  99,  21.8,  20.5,  17.9,   0.0,  0.00, 
 01/07/03, 00:00,  17.7,  99,  21.5,  20.5,  17.9,   0.0,  0.00, 
 01/07/03, 01:00,  18.1,  99,  21.2,  20.4,  18.0,   0.0,  0.00, 
 01/07/03, 02:00,  18.0,  99,  20.9,  20.4,  18.0,   0.0,  0.00, 
 01/07/03, 03:00,  17.5,  99,  20.7,  20.3,  18.0,   0.0,  0.00, 
 01/07/03, 04:00,  18.1,  99,  20.5,  20.2,  18.1,   0.0,  0.00, 
 01/07/03, 05:00,  17.9,  99,  20.3,  20.1,  18.1,   0.0,  0.00, 
 01/07/03, 06:00,  18.6,  99,  20.2,  20.1,  18.1,   0.0,  0.13, 
 01/07/03, 07:00,  18.5,  99,  20.1,  20.0,  18.1,   0.0,  0.28, 
 01/07/03, 08:00,  19.6,  97,  20.1,  19.9,  18.1,   0.0,  0.61, 
 01/07/03, 09:00,  19.7,  96,  20.3,  19.8,  18.2,   0.0,  0.86, 
 01/07/03, 10:00,  21.3,  92,  20.5,  19.8,  18.2,   0.0,  1.29, 
 01/07/03, 11:00,  23.9,  82,  21.0,  19.8,  18.2,   0.0,  2.71, 
 01/07/03, 12:00,  23.6,  82,  21.9,  19.8,  18.2,   0.0,  3.11, 
 01/07/03, 13:00,  24.0,  80,  22.9,  19.9,  18.2,   0.0,  1.50, 
 01/07/03, 14:00,  23.7,  79,  23.2,  20.0,  18.2,   0.0,  1.61, 
 01/07/03, 15:00,  24.1,  79,  23.3,  20.2,  18.2,   0.0,  1.63, 
 01/07/03, 16:00,  25.0,  78,  23.4,  20.4,  18.2,   0.0,  2.04, 
 01/07/03, 17:00,  22.5,  85,  23.7,  20.5,  18.2,   0.0,  1.06, 
 01/07/03, 18:00,  21.5,  92,  23.6,  20.7,  18.2,   0.0,  0.03, 
 01/07/03, 19:00,  20.8,  93,  23.3,  20.8,  18.2,   0.0,  0.01, 
 01/07/03, 20:00,  20.3,  96,  23.0,  20.9,  18.3,   0.0,  0.00, 
 01/07/03, 21:00,  19.6,  99,  22.7,  20.9,  18.3,   0.0,  0.00, 
 01/07/03, 22:00,  19.0,  99,  22.4,  21.0,  18.3,   0.0,  0.00, 
 01/07/03, 23:00,  17.7,  99,  22.1,  21.0,  18.3,   0.0,  0.00, 
 01/07/04, 00:00,  17.0,  99,  21.8,  20.9,  18.4,   0.0,  0.00, 
 01/07/04, 01:00,  18.5,  96,  21.4,  20.9,  18.4,   0.0,  0.00, 
 01/07/04, 02:00,  17.3,  99,  21.1,  20.8,  18.4,   0.0,  0.00, 
 01/07/04, 03:00,  17.2,  99,  20.9,  20.7,  18.4,   0.0,  0.00, 
 01/07/04, 04:00,  18.4,  96,  20.6,  20.6,  18.5,   0.0,  0.00, 
 01/07/04, 05:00,  16.9,  98,  20.4,  20.5,  18.5,   0.0,  0.00, 
 01/07/04, 06:00,  17.4,  96,  20.1,  20.4,  18.5,   0.0,  0.09, 
 01/07/04, 07:00,  19.3,  73,  20.0,  20.3,  18.5,   0.0,  0.41, 
 01/07/04, 08:00,  21.0,  63,  19.9,  20.2,  18.5,   0.0,  0.88, 
 01/07/04, 09:00,  22.0,  58,  20.0,  20.0,  18.5,   0.0,  2.03, 
 01/07/04, 10:00,  23.8,  55,  20.5,  20.0,  18.6,   0.0,  2.52, 
 01/07/04, 11:00,  24.7,  48,  21.3,  20.0,  18.6,   0.0,  2.96, 
 01/07/04, 12:00,  25.9,  45,  22.4,  20.0,  18.6,   0.0,  3.42, 
 01/07/04, 13:00,  26.2,  55,  23.6,  20.1,  18.6,   0.0,  3.25, 
 01/07/04, 14:00,  27.0,  57,  24.1,  20.3,  18.6,   0.0,  3.33, 
 01/07/04, 15:00,  27.2,  55,  24.0,  20.6,  18.6,   0.0,  3.30, 
 01/07/04, 16:00,  26.6,  59,  23.9,  20.8,  18.6,   0.0,  3.20, 
 01/07/04, 17:00,  25.3,  64,  24.1,  20.9,  18.6,   0.0,  1.45, 
 01/07/04, 18:00,  23.6,  75,  24.1,  21.1,  18.6,   0.0,  0.08, 
 01/07/04, 19:00,  22.7,  66,  23.8,  21.2,  18.6,   0.0,  0.01, 
 01/07/04, 20:00,  22.2,  77,  23.4,  21.3,  18.6,   0.0,  0.00, 
 01/07/04, 21:00,  18.7,  92,  22.9,  21.3,  18.6,   0.0,  0.00, 
 01/07/04, 22:00,  18.0,  90,  22.5,  21.3,  18.6,   0.0,  0.00, 
 01/07/04, 23:00,  17.6,  90,  22.1,  21.3,  18.7,   0.0,  0.00, 
 01/07/05, 00:00,  19.6,  79,  21.7,  21.3,  18.7,   0.0,  0.00, 
 01/07/05, 01:00,  21.1,  64,  21.3,  21.2,  18.7,   0.0,  0.00, 
 01/07/05, 02:00,  18.5,  74,  21.0,  21.1,  18.7,   0.0,  0.00, 
 01/07/05, 03:00,  20.5,  55,  20.7,  21.0,  18.8,   0.0,  0.00, 
 01/07/05, 04:00,  18.7,  66,  20.4,  20.9,  18.8,   0.0,  0.00, 
 01/07/05, 05:00,  18.5,  66,  20.1,  20.7,  18.8,   0.0,  0.00, 
 01/07/05, 06:00,  21.4,  53,  19.9,  20.6,  18.8,   0.0,  0.19, 
 01/07/05, 07:00,  23.0,  47,  19.7,  20.5,  18.8,   0.0,  0.78, 
 01/07/05, 08:00,  24.0,  48,  19.9,  20.4,  18.8,   0.0,  1.79, 
 01/07/05, 09:00,  24.1,  68,  20.3,  20.2,  18.8,   0.0,  2.42, 
 01/07/05, 10:00,  25.8,  62,  21.0,  20.2,  18.9,   0.0,  2.96, 
 01/07/05, 11:00,  27.3,  51,  22.1,  20.2,  18.9,   0.0,  3.33, 
 01/07/05, 12:00,  28.0,  48,  23.4,  20.3,  18.9,   0.0,  3.48, 
 01/07/05, 13:00,  28.3,  42,  24.8,  20.5,  18.9,   0.0,  3.35, 
 01/07/05, 14:00,  28.5,  52,  25.2,  20.7,  18.8,   0.0,  3.04, 
 01/07/05, 15:00,  27.9,  52,  25.0,  21.0,  18.8,   0.0,  2.78, 
 01/07/05, 16:00,  27.4,  57,  24.8,  21.3,  18.8,   0.0,  2.03, 
 01/07/05, 17:00,  25.0,  66,  24.9,  21.5,  18.8,   0.0,  1.13, 
 01/07/05, 18:00,  23.4,  72,  24.7,  21.6,  18.9,   0.0,  0.47, 
 01/07/05, 19:00,  21.9,  79,  24.4,  21.7,  18.9,   0.0,  0.08, 
 01/07/05, 20:00,  20.3,  74,  24.0,  21.8,  18.9,   0.0,  0.00, 
 01/07/05, 21:00,  19.1,  83,  23.5,  21.9,  18.9,   0.0,  0.00, 
 01/07/05, 22:00,  20.4,  82,  23.1,  21.9,  18.9,   0.0,  0.00, 
 01/07/05, 23:00,  18.2,  99,  22.8,  21.8,  19.0,   0.0,  0.00, 
 01/07/06, 00:00,  18.3,  94,  22.5,  21.8,  19.0,   0.0,  0.00, 
 01/07/06, 01:00,  17.6,  99,  22.2,  21.7,  19.0,   0.0,  0.00, 
 01/07/06, 02:00,  17.4,  99,  21.9,  21.6,  19.0,   0.0,  0.00, 
 01/07/06, 03:00,  17.8,  99,  21.7,  21.5,  19.1,   0.0,  0.00, 
 01/07/06, 04:00,  17.3,  98,  21.4,  21.4,  19.1,   0.0,  0.00, 
 01/07/06, 05:00,  17.8,  88,  21.2,  21.3,  19.1,   0.0,  0.00, 
 01/07/06, 06:00,  17.4,  99,  21.0,  21.2,  19.1,   0.0,  0.04, 
 01/07/06, 07:00,  18.2,  99,  20.9,  21.1,  19.2,   0.0,  0.61, 
 01/07/06, 08:00,  19.3,  89,  21.0,  21.0,  19.2,   0.0,  1.11, 
 01/07/06, 09:00,  19.7,  91,  21.2,  20.9,  19.2,   0.0,  0.87, 
 01/07/06, 10:00,  19.7,  89,  21.4,  20.9,  19.2,   0.0,  1.01, 
 01/07/06, 11:00,  19.4,  89,  21.6,  20.8,  19.2,   0.0,  1.18, 
 01/07/06, 12:00,  18.8,  97,  21.8,  20.8,  19.2,   0.0,  0.71, 
 01/07/06, 13:00,  18.4,  99,  21.9,  20.8,  19.2,   0.0,  0.68, 
 01/07/06, 14:00,  18.6,  99,  21.9,  20.9,  19.2,   0.0,  0.48, 
 01/07/06, 15:00,  18.3,  99,  21.9,  20.9,  19.2,   0.0,  0.27, 
 01/07/06, 16:00,  17.4,  99,  21.7,  20.9,  19.2,   1.0,  0.23, 
 01/07/06, 17:00,  17.2,  99,  21.5,  20.9,  19.2,   4.0,  0.15, 
 01/07/06, 18:00,  16.9,  99,  21.3,  20.9,  19.2,   0.0,  0.11, 
 01/07/06, 19:00,  16.8,  99,  21.1,  20.8,  19.2,   0.0,  0.01, 
 01/07/06, 20:00,  16.8,  99,  20.9,  20.8,  19.2,   0.5,  0.00, 
 01/07/06, 21:00,  16.7,  98,  20.7,  20.8,  19.2,   0.0,  0.00, 
 01/07/06, 22:00,  16.5,  99,  20.5,  20.7,  19.2,   0.0,  0.00, 
 01/07/06, 23:00,  16.7,  96,  20.3,  20.6,  19.2,   0.0,  0.00, 
 01/07/07, 00:00,  16.1,  99,  20.1,  20.5,  19.2,   0.0,  0.00, 
 01/07/07, 01:00,  15.5,  99,  19.9,  20.5,  19.2,   0.0,  0.00, 
 01/07/07, 02:00,  15.0,  99,  19.7,  20.4,  19.2,   0.0,  0.00, 
 01/07/07, 03:00,  15.0,  99,  19.5,  20.3,  19.2,   0.0,  0.00, 
 01/07/07, 04:00,  14.6,  99,  19.4,  20.2,  19.2,   0.0,  0.00, 
 01/07/07, 05:00,  14.0,  99,  19.1,  20.1,  19.2,   0.0,  0.00, 
 01/07/07, 06:00,  13.9,  99,  19.0,  20.0,  19.2,   0.0,  0.23, 
 01/07/07, 07:00,  15.0,  99,  18.9,  19.9,  19.2,   0.0,  0.79, 
 01/07/07, 08:00,  17.3,  93,  18.9,  19.8,  19.2,   0.0,  1.27, 
 01/07/07, 09:00,  16.6,  95,  19.3,  19.7,  19.2,   0.0,  1.43, 
 01/07/07, 10:00,  18.8,  87,  19.8,  19.7,  19.1,   0.0,  2.84, 
 01/07/07, 11:00,  19.9,  80,  20.6,  19.6,  19.1,   0.0,  3.27, 
 01/07/07, 12:00,  21.4,  81,  21.6,  19.7,  19.1,   0.0,  2.72, 
 01/07/07, 13:00,  21.1,  79,  22.4,  19.8,  19.1,   0.0,  2.40, 
 01/07/07, 14:00,  21.4,  66,  22.8,  20.0,  19.1,   0.0,  2.78, 
 01/07/07, 15:00,  22.4,  61,  22.9,  20.2,  19.1,   0.0,  2.70, 
 01/07/07, 16:00,  21.5,  69,  22.9,  20.4,  19.0,   0.0,  2.06, 
 01/07/07, 17:00,  20.7,  70,  23.0,  20.6,  19.0,   0.0,  1.34, 
 01/07/07, 18:00,  19.6,  83,  22.9,  20.7,  19.0,   0.0,  0.76, 
 01/07/07, 19:00,  18.4,  88,  22.7,  20.8,  19.0,   0.0,  0.26, 
 01/07/07, 20:00,  18.1,  89,  22.4,  20.9,  19.0,   0.0,  0.00, 
 01/07/07, 21:00,  17.6,  93,  22.0,  20.9,  19.0,   0.0,  0.00, 
 01/07/07, 22:00,  17.2,  97,  21.7,  20.9,  19.0,   0.0,  0.00, 
 01/07/07, 23:00,  16.6,  99,  21.5,  20.9,  19.1,   0.0,  0.00, 
 01/07/08, 00:00,  15.9,  99,  21.2,  20.9,  19.1,   0.0,  0.00, 
 01/07/08, 01:00,  15.4,  99,  20.9,  20.8,  19.1,   0.0,  0.00, 
 01/07/08, 02:00,  15.9,  99,  20.6,  20.7,  19.1,   0.0,  0.00, 
 01/07/08, 03:00,  16.0,  99,  20.4,  20.7,  19.1,   0.0,  0.00, 
 01/07/08, 04:00,  15.7,  99,  20.3,  20.6,  19.1,   0.0,  0.00, 
 01/07/08, 05:00,  15.7,  99,  20.1,  20.5,  19.1,   0.0,  0.00, 
 01/07/08, 06:00,  16.2,  99,  19.9,  20.4,  19.1,   0.0,  0.10, 
 01/07/08, 07:00,  17.3,  94,  19.8,  20.3,  19.1,   0.0,  0.51, 
 01/07/08, 08:00,  18.0,  93,  19.9,  20.2,  19.1,   0.0,  1.41, 
 01/07/08, 09:00,  19.6,  86,  20.2,  20.1,  19.1,   0.0,  2.16, 
 01/07/08, 10:00,  21.1,  78,  20.7,  20.1,  19.1,   0.0,  2.68, 
 01/07/08, 11:00,  21.6,  73,  21.4,  20.1,  19.1,   0.0,  2.85, 
 01/07/08, 12:00,  23.8,  68,  22.4,  20.1,  19.1,   0.0,  3.07, 
 01/07/08, 13:00,  23.4,  61,  23.5,  20.3,  19.1,   0.0,  3.31, 
 01/07/08, 14:00,  24.6,  67,  24.0,  20.5,  19.1,   0.0,  2.21, 
 01/07/08, 15:00,  24.6,  63,  24.0,  20.7,  19.1,   0.0,  2.87, 
 01/07/08, 16:00,  23.0,  70,  24.0,  20.9,  19.1,   0.0,  1.83, 
 01/07/08, 17:00,  22.4,  80,  24.1,  21.1,  19.1,   0.0,  1.40, 
 01/07/08, 18:00,  19.9,  87,  24.0,  21.3,  19.1,   0.0,  0.29, 
 01/07/08, 19:00,  19.3,  93,  23.6,  21.4,  19.1,   0.0,  0.04, 
 01/07/08, 20:00,  18.5,  93,  23.3,  21.5,  19.1,   0.0,  0.00, 
 01/07/08, 21:00,  17.8,  95,  22.9,  21.5,  19.1,   0.0,  0.00, 
 01/07/08, 22:00,  16.7,  99,  22.6,  21.5,  19.2,   0.0,  0.00, 
 01/07/08, 23:00,  16.1,  99,  22.2,  21.5,  19.2,   0.0,  0.00, 
 01/07/09, 00:00,  16.0,  99,  21.8,  21.4,  19.2,   0.0,  0.00, 
 01/07/09, 01:00,  16.8,  99,  21.5,  21.4,  19.2,   0.0,  0.00, 
 01/07/09, 02:00,  15.9,  99,  21.2,  21.3,  19.2,   0.0,  0.00, 
 01/07/09, 03:00,  15.0,  99,  21.0,  21.2,  19.3,   0.0,  0.00, 
 01/07/09, 04:00,  14.5,  99,  20.7,  21.1,  19.3,   0.0,  0.00, 
 01/07/09, 05:00,  15.5,  97,  20.4,  20.9,  19.3,   0.0,  0.00, 
 01/07/09, 06:00,  15.8,  99,  20.1,  20.9,  19.3,   0.0,  0.21, 
 01/07/09, 07:00,  17.8,  93,  20.0,  20.7,  19.3,   0.0,  0.70, 
 01/07/09, 08:00,  18.5,  90,  20.1,  20.6,  19.3,   0.0,  1.46, 
 01/07/09, 09:00,  20.9,  84,  20.5,  20.5,  19.3,   0.0,  2.15, 
 01/07/09, 10:00,  21.8,  80,  21.0,  20.5,  19.3,   0.0,  2.67, 
 01/07/09, 11:00,  23.2,  77,  21.8,  20.4,  19.3,   0.0,  2.61, 
 01/07/09, 12:00,  24.1,  58,  22.6,  20.5,  19.3,   0.0,  2.80, 
 01/07/09, 13:00,  24.1,  63,  23.4,  20.6,  19.3,   0.0,  2.94, 
 01/07/09, 14:00,  23.0,  66,  23.9,  20.8,  19.3,   0.0,  1.34, 
 01/07/09, 15:00,  23.0,  77,  24.0,  21.0,  19.3,   0.0,  1.02, 
 01/07/09, 16:00,  23.7,  72,  23.9,  21.2,  19.3,   0.0,  1.32, 
 01/07/09, 17:00,  22.5,  75,  23.9,  21.3,  19.3,   0.0,  1.09, 
 01/07/09, 18:00,  21.5,  82,  23.8,  21.4,  19.3,   0.0,  0.69, 
 01/07/09, 19:00,  19.5,  89,  23.6,  21.5,  19.3,   0.0,  0.12, 
 01/07/09, 20:00,  18.1,  92,  23.2,  21.6,  19.3,   0.0,  0.00, 
 01/07/09, 21:00,  17.2,  97,  22.8,  21.6,  19.4,   0.0,  0.00, 
 01/07/09, 22:00,  16.9,  98,  22.4,  21.6,  19.5,   0.0,  0.00, 
 01/07/09, 23:00,  15.5,  99,  22.0,  21.6,  19.5,   0.0,  0.00, 
 01/07/10, 00:00,  15.6,  99,  21.6,  21.5,  19.4,   0.0,  0.00, 
 01/07/10, 01:00,  15.5,  99,  21.3,  21.4,  19.4,   0.0,  0.00, 
 01/07/10, 02:00,  15.6,  99,  21.0,  21.3,  19.4,   0.0,  0.00, 
 01/07/10, 03:00,  15.6,  99,  20.7,  21.2,  19.4,   0.0,  0.00, 
 01/07/10, 04:00,  14.8,  99,  20.4,  21.1,  19.5,   0.0,  0.00, 
 01/07/10, 05:00,  14.8,  99,  20.1,  21.0,  19.5,   0.0,  0.00, 
 01/07/10, 06:00,  15.8,  94,  19.9,  20.8,  19.5,   0.0,  0.18, 
 01/07/10, 07:00,  19.2,  88,  19.7,  20.7,  19.5,   0.0,  0.82, 
 01/07/10, 08:00,  20.5,  78,  19.9,  20.6,  19.5,   0.0,  1.58, 
 01/07/10, 09:00,  22.4,  72,  20.3,  20.5,  19.5,   0.0,  2.29, 
 01/07/10, 10:00,  22.9,  70,  21.0,  20.4,  19.5,   0.0,  2.86, 
 01/07/10, 11:00,  23.9,  57,  21.9,  20.4,  19.5,   0.0,  3.25, 
 01/07/10, 12:00,  25.4,  55,  23.1,  20.5,  19.5,   0.0,  3.45, 
 01/07/10, 13:00,  25.5,  55,  24.4,  20.6,  19.6,   0.0,  3.36, 
 01/07/10, 14:00,  25.5,  55,  24.8,  20.9,  19.6,   0.0,  3.15, 
 01/07/10, 15:00,  24.4,  59,  24.6,  21.2,  19.6,   0.0,  2.36, 
 01/07/10, 16:00,  24.1,  61,  24.4,  21.4,  19.5,   0.0,  1.92, 
 01/07/10, 17:00,  22.9,  60,  24.4,  21.6,  19.4,   0.0,  1.15, 
 01/07/10, 18:00,  21.3,  66,  24.1,  21.7,  19.4,   0.0,  0.56, 
 01/07/10, 19:00,  20.0,  70,  23.8,  21.8,  19.5,   0.0,  0.13, 
 01/07/10, 20:00,  17.8,  78,  23.4,  21.8,  19.6,   0.0,  0.00, 
 01/07/10, 21:00,  17.9,  81,  23.0,  21.9,  19.6,   0.0,  0.00, 
 01/07/10, 22:00,  16.9,  86,  22.5,  21.8,  19.5,   0.0,  0.00, 
 01/07/10, 23:00,  14.9,  95,  22.1,  21.8,  19.5,   0.0,  0.00, 
 01/07/11, 00:00,  17.6,  79,  21.7,  21.7,  19.5,   0.0,  0.00, 
 01/07/11, 01:00,  14.9,  96,  21.3,  21.6,  19.5,   0.0,  0.00, 
 01/07/11, 02:00,  17.3,  77,  21.0,  21.5,  19.6,   0.0,  0.00, 
 01/07/11, 03:00,  15.6,  88,  20.7,  21.4,  19.6,   0.0,  0.00, 
 01/07/11, 04:00,  17.0,  81,  20.4,  21.2,  19.6,   0.0,  0.00, 
 01/07/11, 05:00,  16.9,  85,  20.1,  21.1,  19.6,   0.0,  0.00, 
 01/07/11, 06:00,  17.5,  86,  19.9,  21.0,  19.6,   0.0,  0.19, 
 01/07/11, 07:00,  19.1,  84,  19.8,  20.8,  19.6,   0.0,  0.78, 
 01/07/11, 08:00,  19.5,  79,  20.0,  20.7,  19.6,   0.0,  1.51, 
 01/07/11, 09:00,  20.5,  76,  20.4,  20.6,  19.6,   0.0,  1.95, 
 01/07/11, 10:00,  21.5,  74,  20.8,  20.5,  19.6,   0.0,  1.07, 
 01/07/11, 11:00,  20.9,  73,  21.2,  20.5,  19.7,   0.0,  2.21, 
 01/07/11, 12:00,  21.8,  73,  21.8,  20.5,  19.6,   0.0,  2.25, 
 01/07/11, 13:00,  21.7,  69,  22.5,  20.6,  19.6,   0.0,  1.75, 
 01/07/11, 14:00,  22.6,  66,  22.7,  20.7,  19.6,   0.0,  1.57, 
 01/07/11, 15:00,  22.4,  69,  22.9,  20.8,  19.6,   0.0,  1.88, 
 01/07/11, 16:00,  21.6,  76,  22.9,  20.9,  19.6,   0.0,  0.60, 
 01/07/11, 17:00,  20.9,  79,  22.9,  21.1,  19.7,   0.0,  0.50, 
 01/07/11, 18:00,  20.2,  82,  22.8,  21.2,  19.7,   0.0,  0.32, 
 01/07/11, 19:00,  19.4,  83,  22.5,  21.2,  19.7,   0.0,  0.05, 
 01/07/11, 20:00,  19.0,  87,  22.3,  21.3,  19.6,   0.0,  0.00, 
 01/07/11, 21:00,  18.6,  91,  22.0,  21.3,  19.6,   0.0,  0.00, 
 01/07/11, 22:00,  19.5,  73,  21.8,  21.3,  19.6,   0.0,  0.00, 
 01/07/11, 23:00,  17.9,  92,  21.5,  21.2,  19.7,   0.0,  0.00, 
 01/07/12, 00:00,  17.3,  97,  21.3,  21.2,  19.6,   0.0,  0.00, 
 01/07/12, 01:00,  17.7,  95,  21.1,  21.1,  19.6,   0.0,  0.00, 
 01/07/12, 02:00,  17.0,  99,  21.0,  21.1,  19.6,   0.0,  0.00, 
 01/07/12, 03:00,  17.3,  98,  20.8,  21.0,  19.6,   0.0,  0.00, 
 01/07/12, 04:00,  18.4,  96,  20.6,  20.8,  19.6,   0.0,  0.00, 
 01/07/12, 05:00,  18.4,  97,  20.5,  20.8,  19.6,   0.0,  0.00, 
 01/07/12, 06:00,  18.8,  96,  20.4,  20.8,  19.6,   0.0,  0.00, 
 01/07/12, 07:00,  18.5,  99,  20.4,  20.7,  19.6,   0.0,  0.01, 
 01/07/12, 08:00,  18.5,  99,  20.3,  20.6,  19.6,   0.0,  0.09, 
 01/07/12, 09:00,  18.6,  99,  20.3,  20.6,  19.6,   0.5,  0.24, 
 01/07/12, 10:00,  18.8,  99,  20.3,  20.4,  19.6,   0.0,  0.30, 
 01/07/12, 11:00,  19.7,  96,  20.4,  20.4,  19.6,   0.0,  0.61, 
 01/07/12, 12:00,  20.7,  97,  20.5,  20.4,  19.6,   0.0,  0.65, 
 01/07/12, 13:00,  20.8,  96,  20.7,  20.4,  19.6,   0.0,  0.60, 
 01/07/12, 14:00,  22.0,  90,  20.9,  20.4,  19.7,   0.0,  1.51, 
 01/07/12, 15:00,  21.7,  93,  21.3,  20.4,  19.6,   0.0,  0.83, 
 01/07/12, 16:00,  20.2,  99,  21.5,  20.4,  19.7,   0.5,  0.42, 
 01/07/12, 17:00,  19.9,  99,  21.5,  20.5,  19.5,   2.5,  0.32, 
 01/07/12, 18:00,  19.7,  99,  21.5,  20.5,  19.5,   0.0,  0.30, 
 01/07/12, 19:00,  19.4,  99,  21.4,  20.6,  19.5,   0.0,  0.04, 
 01/07/12, 20:00,  18.9,  99,  21.2,  20.5,  19.5,   2.5,  0.00, 
 01/07/12, 21:00,  18.3,  99,  21.1,  20.6,  19.5,   4.0,  0.00, 
 01/07/12, 22:00,  18.3,  99,  20.9,  20.6,  19.5,   1.0,  0.00, 
 01/07/12, 23:00,  18.5,  99,  20.7,  20.6,  19.5,   0.0,  0.00, 
 01/07/13, 00:00,  18.6,  99,  20.6,  20.6,  19.5,   0.0,  0.00, 
 01/07/13, 01:00,  18.3,  99,  20.5,  20.4,  19.5,   0.0,  0.00, 
 01/07/13, 02:00,  18.4,  99,  20.4,  20.5,  19.5,   0.0,  0.00, 
 01/07/13, 03:00,  18.4,  99,  20.3,  20.4,  19.5,   0.5,  0.00, 
 01/07/13, 04:00,  18.3,  99,  20.2,  20.4,  19.5,   0.5,  0.00, 
 01/07/13, 05:00,  18.6,  99,  20.2,  20.3,  19.5,   0.0,  0.00, 
 01/07/13, 06:00,  19.1,  99,  20.1,  20.3,  19.5,   0.0,  0.11, 
 01/07/13, 07:00,  18.5,  99,  20.1,  20.3,  19.5,   1.0,  0.23, 
 01/07/13, 08:00,  19.1,  99,  20.1,  20.2,  19.5,   1.5,  0.31, 
 01/07/13, 09:00,  20.2,  99,  20.2,  20.2,  19.5,   0.0,  0.73, 
 01/07/13, 10:00,  20.2,  99,  20.4,  20.1,  19.5,   0.0,  0.77, 
 01/07/13, 11:00,  21.2,  98,  20.6,  20.1,  19.5,   0.0,  0.93, 
 01/07/13, 12:00,  21.3,  95,  20.9,  20.1,  19.5,   0.0,  0.91, 
 01/07/13, 13:00,  22.7,  90,  21.2,  20.2,  19.5,   0.0,  1.92, 
 01/07/13, 14:00,  22.1,  99,  21.7,  20.2,  19.4,   0.5,  1.24, 
 01/07/13, 15:00,  23.9,  89,  22.0,  20.3,  19.4,   0.0,  1.92, 
 01/07/13, 16:00,  22.9,  89,  22.3,  20.4,  19.4,   0.5,  1.34, 
 01/07/13, 17:00,  22.6,  89,  22.6,  20.5,  19.4,   0.0,  0.95, 
 01/07/13, 18:00,  21.5,  91,  22.7,  20.6,  19.4,   0.0,  0.24, 
 01/07/13, 19:00,  18.6,  99,  22.5,  20.8,  19.4,   6.5,  0.02, 
 01/07/13, 20:00,  17.5,  99,  22.2,  20.9,  19.4,   3.0,  0.00, 
 01/07/13, 21:00,  17.7,  99,  21.8,  21.0,  19.4,   0.0,  0.00, 
 01/07/13, 22:00,  17.9,  96,  21.5,  21.0,  19.5,   0.0,  0.00, 
 01/07/13, 23:00,  18.2,  92,  21.3,  21.0,  19.5,   0.0,  0.00, 
 01/07/14, 00:00,  18.2,  92,  21.0,  20.9,  19.5,   0.0,  0.00, 
 01/07/14, 01:00,  17.7,  98,  20.9,  20.9,  19.5,   0.5,  0.00, 
 01/07/14, 02:00,  19.0,  88,  20.7,  20.8,  19.5,   0.0,  0.00, 
 01/07/14, 03:00,  18.5,  94,  20.6,  20.7,  19.5,   0.0,  0.00, 
 01/07/14, 04:00,  18.8,  96,  20.5,  20.7,  19.5,   0.0,  0.00, 
 01/07/14, 05:00,  19.0,  98,  20.4,  20.6,  19.6,   0.0,  0.00, 
 01/07/14, 06:00,  18.9,  98,  20.3,  20.4,  19.6,   0.0,  0.11, 
 01/07/14, 07:00,  19.9,  93,  20.2,  20.4,  19.6,   0.0,  0.35, 
 01/07/14, 08:00,  22.6,  86,  20.2,  20.4,  19.6,   0.0,  1.38, 
 01/07/14, 09:00,  21.8,  90,  20.6,  20.3,  19.6,   0.0,  0.99, 
 01/07/14, 10:00,  23.2,  88,  21.0,  20.3,  19.6,   0.0,  1.64, 
 01/07/14, 11:00,  22.6,  89,  21.5,  20.3,  19.6,   0.0,  1.19, 
 01/07/14, 12:00,  24.2,  85,  21.9,  20.4,  19.7,   0.0,  1.73, 
 01/07/14, 13:00,  23.3,  83,  22.4,  20.5,  19.6,   0.0,  1.50, 
 01/07/14, 14:00,  25.2,  74,  22.8,  20.6,  19.7,   0.0,  3.07, 
 01/07/14, 15:00,  26.9,  71,  23.0,  20.7,  19.7,   0.0,  2.56, 
 01/07/14, 16:00,  26.3,  74,  23.2,  20.8,  19.6,   0.0,  2.25, 
 01/07/14, 17:00,  23.6,  87,  23.5,  21.0,  19.6,   0.0,  1.23, 
 01/07/14, 18:00,  22.3,  92,  23.5,  21.1,  19.6,   0.0,  0.15, 
 01/07/14, 19:00,  21.2,  98,  23.4,  21.2,  19.6,   0.0,  0.15, 
 01/07/14, 20:00,  20.0,  99,  23.1,  21.3,  19.7,   0.0,  0.00, 
 01/07/14, 21:00,  19.8,  99,  22.8,  21.4,  19.7,   0.0,  0.00, 
 01/07/14, 22:00,  19.8,  99,  22.5,  21.4,  19.7,   0.0,  0.00, 
 01/07/14, 23:00,  20.0,  99,  22.2,  21.4,  19.7,   0.0,  0.00, 
 01/07/15, 00:00,  20.1,  99,  22.0,  21.4,  19.7,   0.0,  0.00, 
 01/07/15, 01:00,  20.3,  99,  21.8,  21.4,  19.7,   0.0,  0.00, 
 01/07/15, 02:00,  19.6,  99,  21.7,  21.3,  19.7,   0.0,  0.00, 
 01/07/15, 03:00,  19.6,  99,  21.5,  21.3,  19.6,   0.0,  0.00, 
 01/07/15, 04:00,  18.7,  99,  21.3,  21.2,  19.7,   0.0,  0.00, 
 01/07/15, 05:00,  18.7,  99,  21.1,  21.1,  19.7,   0.0,  0.00, 
 01/07/15, 06:00,  19.2,  99,  21.0,  21.1,  19.7,   0.0,  0.17, 
 01/07/15, 07:00,  21.9,  94,  20.9,  21.0,  19.7,   0.0,  0.86, 
 01/07/15, 08:00,  22.6,  89,  21.1,  20.9,  19.7,   0.0,  1.55, 
 01/07/15, 09:00,  22.9,  89,  21.6,  20.9,  19.7,   0.0,  2.05, 
 01/07/15, 10:00,  23.7,  85,  22.1,  20.9,  19.7,   0.0,  1.77, 
 01/07/15, 11:00,  24.9,  81,  22.7,  20.9,  19.7,   0.0,  3.29, 
 01/07/15, 12:00,  23.9,  83,  23.7,  21.0,  19.8,   0.0,  1.96, 
 01/07/15, 13:00,  24.4,  82,  24.2,  21.1,  19.8,   0.0,  1.18, 
 01/07/15, 14:00,  24.2,  81,  24.3,  21.3,  19.8,   0.0,  1.30, 
 01/07/15, 15:00,  26.3,  75,  24.3,  21.5,  19.8,   0.0,  2.09, 
 01/07/15, 16:00,  25.2,  76,  24.4,  21.7,  19.8,   0.0,  1.61, 
 01/07/15, 17:00,  23.1,  79,  24.6,  21.8,  19.8,   0.0,  0.90, 
 01/07/15, 18:00,  21.4,  88,  24.5,  21.9,  19.9,   0.0,  0.20, 
 01/07/15, 19:00,  20.4,  92,  24.2,  22.0,  19.9,   0.0,  0.00, 
 01/07/15, 20:00,  19.9,  94,  23.8,  22.0,  19.8,   0.0,  0.00, 
 01/07/15, 21:00,  18.9,  99,  23.5,  22.0,  19.8,   0.0,  0.00, 
 01/07/15, 22:00,  18.5,  99,  23.1,  22.1,  19.8,   0.0,  0.00, 
 01/07/15, 23:00,  18.5,  98,  22.8,  22.0,  19.8,   0.0,  0.00, 
 01/07/16, 00:00,  18.1,  99,  22.5,  22.0,  19.9,   0.0,  0.00, 
 01/07/16, 01:00,  18.1,  99,  22.2,  21.9,  19.9,   0.0,  0.00, 